• In Uzbekistan
  • List of Countries
  • For 7 days
  • Water Temperature
  • Satellite Maps
  • Weather Map
  • Weather Widgets
  • user-avatar
    Login

    Hourly Weather Lichwin

    Today, 16 July, Monday

    Time Temperature Precipitation Wind Pressure Humidity
    00:00 +16°C° 0.1 mm 2 mps 730 mmHg 94%
    01:00 +15°C° 0 mm 2 mps 730 mmHg 95%
    02:00 +15°C° 0 mm 2 mps 730 mmHg 95%
    03:00 +15°C° 0 mm 2 mps 730 mmHg 95%
    04:00 +15°C° 0 mm 2 mps 730 mmHg 95%
    05:00 +16°C° 0 mm 3 mps 730 mmHg 92%
    06:00 +18°C° 0 mm 4 mps 730 mmHg 88%
    07:00 +19°C° 0 mm 4 mps 729 mmHg 83%
    08:00 +20°C° 1 mm 5 mps 729 mmHg 80%
    09:00 +21°C° 1 mm 5 mps 729 mmHg 77%
    10:00 +22°C° 1 mm 5 mps 729 mmHg 74%
    11:00 +22°C° 1.1 mm 5 mps 729 mmHg 76%
    12:00 +23°C° 1.1 mm 5 mps 728 mmHg 76%
    13:00 +22°C° 0 mm 5 mps 728 mmHg 74%
    14:00 +22°C° 0.8 mm 4 mps 728 mmHg 77%
    15:00 +21°C° 0.8 mm 4 mps 728 mmHg 80%
    16:00 +21°C° 0.8 mm 3 mps 728 mmHg 82%
    17:00 +20°C° 0.4 mm 3 mps 728 mmHg 85%
    18:00 +20°C° 0.4 mm 3 mps 727 mmHg 87%
    19:00 +19°C° 0.4 mm 3 mps 727 mmHg 90%
    20:00 +18°C° 0.1 mm 2 mps 727 mmHg 91%
    21:00 +17°C° 0.1 mm 2 mps 727 mmHg 93%
    22:00 +16°C° 0.1 mm 2 mps 727 mmHg 94%
    23:00 +16°C° 0 mm 2 mps 727 mmHg 95%

    Tomorrow, 17 July, Tuesday

    Time Temperature Precipitation Wind Pressure Humidity
    00:00 +16°C° 0 mm 2 mps 727 mmHg 95%
    01:00 +16°C° 0 mm 2 mps 726 mmHg 96%
    02:00 +15°C° 0 mm 2 mps 726 mmHg 96%
    03:00 +15°C° 0 mm 2 mps 726 mmHg 96%
    04:00 +14°C° 0 mm 3 mps 726 mmHg 96%
    05:00 +16°C° 0.1 mm 3 mps 726 mmHg 94%
    06:00 +17°C° 0.1 mm 3 mps 726 mmHg 93%
    07:00 +18°C° 0.1 mm 4 mps 726 mmHg 91%
    08:00 +19°C° 0.2 mm 4 mps 726 mmHg 90%
    09:00 +19°C° 0.2 mm 4 mps 726 mmHg 89%
    10:00 +19°C° 0.2 mm 4 mps 726 mmHg 88%
    11:00 +20°C° 0.3 mm 5 mps 726 mmHg 84%
    12:00 +21°C° 0.3 mm 5 mps 725 mmHg 80%
    13:00 +22°C° 0.3 mm 6 mps 725 mmHg 76%
    14:00 +22°C° 0.5 mm 6 mps 725 mmHg 77%
    15:00 +22°C° 0.5 mm 6 mps 725 mmHg 79%
    16:00 +22°C° 0.5 mm 6 mps 725 mmHg 80%
    17:00 +21°C° 0.6 mm 5 mps 725 mmHg 83%
    18:00 +20°C° 0.6 mm 5 mps 725 mmHg 87%
    19:00 +19°C° 0.6 mm 4 mps 725 mmHg 90%
    20:00 +19°C° 0.4 mm 4 mps 725 mmHg 92%
    21:00 +18°C° 0.4 mm 4 mps 725 mmHg 94%
    22:00 +18°C° 0.4 mm 4 mps 726 mmHg 96%
    23:00 +18°C° 0.3 mm 4 mps 726 mmHg 96%

    Day after tomorrow, 18 July, Wednesday

    Time Temperature Precipitation Wind Pressure Humidity
    00:00 +18°C° 0.3 mm 4 mps 726 mmHg 96%
    01:00 +18°C° 0.3 mm 4 mps 726 mmHg 96%
    02:00 +17°C° 0.7 mm 5 mps 725 mmHg 96%
    03:00 +17°C° 0.7 mm 5 mps 725 mmHg 96%
    04:00 +17°C° 0.7 mm 5 mps 725 mmHg 96%
    05:00 +17°C° 3.1 mm 5 mps 725 mmHg 96%
    06:00 +17°C° 3.1 mm 5 mps 725 mmHg 96%
    07:00 +17°C° 3.1 mm 5 mps 725 mmHg 96%
    08:00 +17°C° 2.3 mm 5 mps 726 mmHg 96%
    09:00 +19°C° 2.3 mm 5 mps 726 mmHg 96%
    10:00 +19°C° 2.3 mm 5 mps 726 mmHg 95%
    11:00 +19°C° 0.7 mm 5 mps 726 mmHg 94%
    12:00 +20°C° 0.7 mm 5 mps 726 mmHg 94%
    13:00 +20°C° 0.7 mm 5 mps 726 mmHg 93%
    14:00 +20°C° 0.7 mm 5 mps 726 mmHg 93%
    15:00 +20°C° 0.7 mm 5 mps 727 mmHg 92%
    16:00 +21°C° 0.7 mm 5 mps 727 mmHg 92%
    17:00 +20°C° 0.5 mm 5 mps 727 mmHg 93%
    18:00 +20°C° 0.5 mm 5 mps 727 mmHg 94%
    19:00 +20°C° 0.5 mm 4 mps 727 mmHg 95%
    20:00 +20°C° 1.2 mm 4 mps 727 mmHg 95%
    21:00 +19°C° 1.2 mm 4 mps 727 mmHg 96%
    22:00 +19°C° 1.2 mm 4 mps 727 mmHg 97%
    23:00 +19°C° 1 mm 4 mps 728 mmHg 97%

    19 July, Thursday

    Time Temperature Precipitation Wind Pressure Humidity
    00:00 +19°C° 1 mm 4 mps 728 mmHg 97%
    01:00 +19°C° 1 mm 4 mps 728 mmHg 97%
    02:00 +19°C° 0.6 mm 4 mps 728 mmHg 97%
    03:00 +19°C° 0.6 mm 4 mps 728 mmHg 97%
    04:00 +19°C° 0.6 mm 4 mps 728 mmHg 97%
    05:00 +19°C° 0.3 mm 4 mps 728 mmHg 97%
    06:00 +19°C° 0.3 mm 4 mps 728 mmHg 96%
    07:00 +19°C° 0.3 mm 4 mps 729 mmHg 96%
    08:00 +19°C° 0.3 mm 4 mps 729 mmHg 95%
    09:00 +19°C° 0.3 mm 4 mps 729 mmHg 93%
    10:00 +20°C° 0.3 mm 4 mps 729 mmHg 92%
    11:00 +20°C° 0.4 mm 4 mps 729 mmHg 91%
    12:00 +21°C° 0.4 mm 4 mps 729 mmHg 89%
    13:00 +21°C° 0.4 mm 4 mps 729 mmHg 87%
    14:00 +21°C° 0.6 mm 5 mps 730 mmHg 88%
    15:00 +21°C° 0.6 mm 5 mps 730 mmHg 88%
    16:00 +21°C° 0.6 mm 5 mps 730 mmHg 88%
    17:00 +20°C° 0.3 mm 5 mps 730 mmHg 90%
    18:00 +20°C° 0.3 mm 4 mps 730 mmHg 92%
    19:00 +19°C° 0.3 mm 4 mps 730 mmHg 94%
    20:00 +19°C° 0.4 mm 4 mps 730 mmHg 95%
    21:00 +18°C° 0.4 mm 3 mps 730 mmHg 96%
    22:00 +18°C° 0.4 mm 3 mps 730 mmHg 97%
    23:00 +18°C° 0.5 mm 3 mps 730 mmHg 97%

    20 July, Friday

    Time Temperature Precipitation Wind Pressure Humidity
    00:00 +18°C° 0.5 mm 3 mps 730 mmHg 97%
    01:00 +18°C° 0.5 mm 3 mps 730 mmHg 97%
    02:00 +18°C° 0.4 mm 3 mps 730 mmHg 97%
    03:00 +18°C° 0.4 mm 3 mps 730 mmHg 97%
    04:00 +17°C° 0.4 mm 3 mps 730 mmHg 98%
    05:00 +18°C° 0.2 mm 3 mps 730 mmHg 97%
    06:00 +18°C° 0.2 mm 3 mps 730 mmHg 97%
    07:00 +18°C° 0.2 mm 3 mps 730 mmHg 96%
    08:00 +19°C° 0.2 mm 3 mps 731 mmHg 93%
    09:00 +20°C° 0.2 mm 3 mps 731 mmHg 89%
    10:00 +21°C° 0.2 mm 3 mps 731 mmHg 86%
    11:00 +21°C° 0.4 mm 3 mps 731 mmHg 82%
    12:00 +22°C° 0.4 mm 4 mps 731 mmHg 78%
    13:00 +23°C° 0.4 mm 4 mps 731 mmHg 74%
    14:00 +23°C° 0.2 mm 4 mps 730 mmHg 73%
    15:00 +23°C° 0.2 mm 4 mps 730 mmHg 71%
    16:00 +25°C° 0.2 mm 4 mps 730 mmHg 70%
    17:00 +24°C° 0.1 mm 3 mps 730 mmHg 75%
    18:00 +22°C° 0.1 mm 3 mps 730 mmHg 79%
    19:00 +20°C° 0.1 mm 2 mps 730 mmHg 84%
    20:00 +19°C° 0 mm 2 mps 730 mmHg 86%
    21:00 +18°C° 0 mm 2 mps 730 mmHg 88%
    22:00 +18°C° 0 mm 1 mps 730 mmHg 90%
    23:00 +18°C° 0 mm 1 mps 730 mmHg 90%

    21 July, Saturday

    Time Temperature Precipitation Wind Pressure Humidity
    00:00 +16°C° 0 mm 1 mps 730 mmHg 91%
    01:00 +16°C° 0 mm 1 mps 730 mmHg 92%
    02:00 +16°C° 0 mm 1 mps 730 mmHg 92%
    03:00 +15°C° 0 mm 1 mps 730 mmHg 92%
    04:00 +15°C° 0 mm 1 mps 730 mmHg 93%
    05:00 +18°C° 0 mm 1 mps 730 mmHg 88%
    06:00 +19°C° 0 mm 1 mps 730 mmHg 83%
    07:00 +21°C° 0 mm 1 mps 730 mmHg 79%
    08:00 +22°C° 0 mm 1 mps 730 mmHg 73%
    09:00 +24°C° 0 mm 1 mps 730 mmHg 67%
    10:00 +25°C° 0 mm 1 mps 730 mmHg 61%
    11:00 +26°C° 0.1 mm 1 mps 730 mmHg 60%
    12:00 +26°C° 0.1 mm 1 mps 730 mmHg 58%
    13:00 +26°C° 0.1 mm 1 mps 729 mmHg 57%
    14:00 +26°C° 0.4 mm 1 mps 729 mmHg 59%
    15:00 +26°C° 0.4 mm 1 mps 729 mmHg 61%
    16:00 +24°C° 0.4 mm 0 mps 729 mmHg 64%
    17:00 +23°C° 0.5 mm 0 mps 728 mmHg 69%
    18:00 +23°C° 0.5 mm 1 mps 728 mmHg 74%
    19:00 +22°C° 0.5 mm 1 mps 728 mmHg 79%
    20:00 +21°C° 0 mm 1 mps 728 mmHg 81%
    21:00 +20°C° 0 mm 1 mps 727 mmHg 84%
    22:00 +20°C° 0 mm 1 mps 727 mmHg 86%
    23:00 +19°C° 0.7 mm 1 mps 727 mmHg 88%
    Show more